Weather History for Carlsbad, NM

Change the Weather History Date:

Friday, February 1, 2013

  Actual Average Record
Temperature  
Mean Temperature 48 °F -  
Max Temperature 70 °F 58 °F 83 °F (1963)
Min Temperature 27 °F 31 °F -4 °F (1951)
Degree Days  
Heating Degree Days 16    
Moisture  
Dew Point 14 °F    
Average Humidity 31    
Maximum Humidity 61    
Minimum Humidity 10    
Precipitation  
Precipitation 0.00 in - - ()
Sea Level Pressure  
Sea Level Pressure 30.11 in    
Wind  
Wind Speed 6 mph (West)    
Max Wind Speed 15 mph    
Max Gust Speed -    
Visibility 10 miles    
Events      
Averages and records for this station are not official NWS values.
T = Trace of Precipitation, MM = Missing Value Source: NWS Daily Summary

Daily Weather History Graph

Daily Weather History Graph

Search for Another Location

Airport:

Trip Planner

Search our weather history database for the weather conditions in past years. The results will help you decide how hot, cold, wet, or windy it might be!

Date:

Astronomy

Feb. 01, 2013 Rise Set
Actual Time 6:50 AM MST 5:30 PM MST
Civil Twilight 6:25 AM MST 5:56 PM MST
Nautical Twilight 5:55 AM MST 6:25 PM MST
Astronomical Twilight 5:27 AM MST 6:54 PM MST
Moon 11:15 PM MST (2/1) 9:48 AM MST (2/1)
Length of Visible Light 11h 31m
Length of Day
10h 39m
Waning Gibbous, 69% of the Moon is Illuminated
Feb 1
Waning Gibbous
Feb 3
Last Quarter
Feb 10
New
Feb 17
First Quarter
Feb 25
Full

Hourly Weather History & Observations

Time (MST) Temp. Windchill Dew Point Humidity Pressure Visibility Wind Dir Wind Speed Gust Speed Precip Events Conditions
12:53 AM 35.1 °F 31.0 °F 17.1 °F 48% 30.15 in 10.0 mi NNE 4.6 mph - N/A   Clear
1:53 AM 35.1 °F 31.0 °F 17.1 °F 48% 30.17 in 10.0 mi NE 4.6 mph - N/A   Clear
2:53 AM 33.1 °F 26.9 °F 16.0 °F 50% 30.16 in 10.0 mi NW 6.9 mph - N/A   Clear
3:53 AM 30.0 °F 25.2 °F 15.1 °F 54% 30.17 in 10.0 mi North 4.6 mph - N/A   Clear
4:53 AM 28.9 °F - 15.1 °F 56% 30.16 in 10.0 mi Calm Calm - N/A   Clear
5:53 AM 27.0 °F 18.7 °F 15.1 °F 61% 30.19 in 10.0 mi WNW 8.1 mph - N/A   Clear
6:53 AM 27.0 °F 20.5 °F 15.1 °F 61% 30.21 in 10.0 mi NW 5.8 mph - N/A   Clear
7:53 AM 33.1 °F 30.0 °F 17.1 °F 52% 30.20 in 10.0 mi NNE 3.5 mph - N/A   Clear
8:53 AM 42.1 °F 38.4 °F 15.1 °F 34% 30.19 in 10.0 mi NNW 5.8 mph - N/A   Clear
9:53 AM 46.0 °F - 16.0 °F 30% 30.19 in 10.0 mi Calm Calm - N/A   Clear
10:53 AM 52.0 °F - 16.0 °F 24% 30.16 in 10.0 mi SE 4.6 mph - N/A   Clear
11:53 AM 57.9 °F - 17.1 °F 20% 30.11 in 10.0 mi SSE 9.2 mph - N/A   Clear
12:53 PM 62.1 °F - 16.0 °F 17% 30.06 in 10.0 mi SSE 9.2 mph - N/A   Clear
1:53 PM 66.0 °F - 15.1 °F 14% 30.01 in 10.0 mi SSE 11.5 mph - N/A   Clear
2:53 PM 69.1 °F - 16.0 °F 13% 30.00 in 10.0 mi SE 9.2 mph - N/A   Clear
3:53 PM 70.0 °F - 10.0 °F 10% 30.00 in 10.0 mi West 10.4 mph - N/A   Clear
4:53 PM 66.9 °F - 10.0 °F 11% 30.01 in 10.0 mi West 10.4 mph - N/A   Clear
5:53 PM 54.0 °F - 12.0 °F 19% 30.04 in 10.0 mi WSW 6.9 mph - N/A   Clear
6:53 PM 57.9 °F - 12.0 °F 16% 30.06 in 10.0 mi WSW 12.7 mph - N/A   Clear
7:53 PM 51.1 °F - 12.9 °F 22% 30.08 in 10.0 mi WSW 6.9 mph - N/A   Clear
8:53 PM 53.1 °F - 12.0 °F 20% 30.06 in 10.0 mi West 10.4 mph - N/A   Clear
9:53 PM 52.0 °F - 12.0 °F 20% 30.06 in 10.0 mi WSW 15.0 mph - N/A   Clear
10:53 PM 51.1 °F - 10.9 °F 20% 30.06 in 10.0 mi Variable 3.5 mph - N/A   Clear
11:53 PM 43.0 °F 39.5 °F 12.0 °F 28% 30.08 in 10.0 mi ENE 5.8 mph - N/A   Clear